Weather History for CYMX - January, 2013

Change the Weather History Date:

Wednesday, January 16, 2013

  Actual Average (WUND) Record (WUND)
Temperature  
Mean Temperature 24 °F -  
Max Temperature 32 °F - - (-1)
Min Temperature 17 °F - - (-1)
Degree Days  
Heating Degree Days 40    
Moisture  
Dew Point 20 °F    
Average Humidity 81    
Maximum Humidity 93    
Minimum Humidity 69    
Precipitation  
Precipitation 0.00 in - - ()
Sea Level Pressure  
Sea Level Pressure 29.96 in    
Wind  
Wind Speed 3 mph ()    
Max Wind Speed 10 mph    
Max Gust Speed 17 mph    
Visibility 20.0 miles    
Events      
Averages and records for this station are not official NWS values.
T = Trace of Precipitation, MM = Missing Value Source: Averaged Metar Reports

Daily Weather History Graph

Daily Weather History Graph

Search for Another Location

Airport or City:

Trip Planner

Search our weather history database for the weather conditions in past years. The results will help you decide how hot, cold, wet, or windy it might be!

Date:

Astronomy

Jan. 16, 2013 Rise Set
Actual Time 7:32 AM EST 4:40 PM EST
Civil Twilight 6:59 AM EST 5:13 PM EST
Nautical Twilight 6:22 AM EST 5:50 PM EST
Astronomical Twilight 5:46 AM EST 6:25 PM EST
Moon 9:48 AM EST (1/16) 10:50 PM EST (1/16)
Length of Visible Light 10h 14m
Length of Day
9h 07m
Waxing Crescent, 28% of the Moon is Illuminated
Jan 16
Waxing Crescent
Jan 18
First Quarter
Jan 26
Full
Feb 3
Last Quarter
Feb 10
New

Hourly Weather History & Observations

Time (EST) Temp. Windchill Dew Point Humidity Pressure Visibility Wind Dir Wind Speed Gust Speed Precip Events Conditions
12:00 AM 23.0 °F 17.0 °F 15.8 °F 74% 30.23 in 25.0 mi WSW 4.6 mph - N/A   Partly Cloudy
1:00 AM 23.0 °F 18.4 °F 15.8 °F 74% 30.22 in 25.0 mi SW 3.5 mph - N/A   Mostly Cloudy
2:00 AM 21.2 °F 16.4 °F 15.8 °F 80% 30.22 in 25.0 mi South 3.5 mph - N/A   Overcast
3:00 AM 19.4 °F - 14.0 °F 80% 30.18 in 25.0 mi Calm Calm - N/A   Overcast
4:00 AM 19.4 °F - 15.8 °F 86% 30.15 in 25.0 mi Calm Calm - N/A   Overcast
5:00 AM 19.4 °F - 15.8 °F 86% 30.12 in 25.0 mi Calm Calm - N/A   Overcast
6:00 AM 17.6 °F - 15.8 °F 93% 30.12 in 25.0 mi Calm Calm - N/A   Overcast
7:00 AM 17.6 °F - 14.0 °F 86% 30.09 in 25.0 mi Calm Calm - N/A   Overcast
8:00 AM 19.4 °F - 15.8 °F 86% 30.09 in 20.0 mi Calm Calm - N/A   Overcast
9:00 AM 17.6 °F - 15.8 °F 93% 30.06 in 20.0 mi NE 2.3 mph - N/A   Mostly Cloudy
10:00 AM 21.2 °F 16.4 °F 15.8 °F 80% 30.03 in 20.0 mi NNE 3.5 mph - N/A   Overcast
11:00 AM 21.2 °F 14.9 °F 15.8 °F 80% 30.00 in 20.0 mi NE 4.6 mph - N/A   Overcast
12:00 PM 24.8 °F 20.5 °F 17.6 °F 74% 29.93 in 20.0 mi NNE 3.5 mph - N/A   Overcast
1:00 PM 28.4 °F 20.4 °F 21.2 °F 74% 29.87 in 20.0 mi SE 8.1 mph - N/A   Scattered Clouds
2:00 PM 30.2 °F 23.4 °F 21.2 °F 69% 29.82 in 25.0 mi SSE 6.9 mph - N/A   Scattered Clouds
3:00 PM 30.2 °F 22.6 °F 21.2 °F 69% 29.81 in 25.0 mi SSE 8.1 mph - N/A   Mostly Cloudy
4:00 PM 28.4 °F 24.6 °F 21.2 °F 74% 29.80 in 25.0 mi South 3.5 mph - N/A   Mostly Cloudy
5:00 PM 28.4 °F 23.3 °F 23.0 °F 80% 29.78 in 20.0 mi South 4.6 mph - N/A   Overcast
6:00 PM 28.4 °F 23.3 °F 24.8 °F 86% 29.76 in 20.0 mi South 4.6 mph - N/A   Overcast
7:00 PM 28.4 °F 21.2 °F 26.6 °F 93% 29.74 in 25.0 mi SSE 6.9 mph - N/A   Overcast
8:00 PM 28.4 °F 23.3 °F 26.6 °F 93% 29.75 in 25.0 mi SW 4.6 mph - N/A   Overcast
9:00 PM 30.2 °F 22.6 °F 26.6 °F 86% 29.74 in 25.0 mi SW 8.1 mph - N/A   Mostly Cloudy
10:00 PM 32.0 °F 24.8 °F 26.6 °F 80% 29.71 in 25.0 mi SW 8.1 mph - N/A   Mostly Cloudy
11:00 PM 32.0 °F 23.6 °F 26.6 °F 80% 29.70 in 25.0 mi WSW 10.4 mph 17.3 mph N/A   Mostly Cloudy